Location: Kuffner-Sternwarte
(48.2130°N, 16.2960°E)
Time: 02:04:24
(UTC+02:00)

COROT - Pass Details

Date: 18 January 2018
Orbit: 600 x 889 km, 90.0° (Epoch: 22 April)

Event Time Altitude Azimuth Distance (km) Brightness Sun altitude
Enters shadow 06:02:29 -1° 350° (N) 2,936 8.8 -15.6°
Exits shadow 06:09:43 21° 260° (W) 1,414 6.9 -14.4°
Drops below altitude 10° 06:11:59 10° 231° (SW) 2,006 7.8 -14.1°
Sets 06:14:35 0° 217° (SW) 2,946 8.8 -13.7°
